ワイズ彗星

356P/WISE (2017)

English version
Home page
Updated on November 7, 2017

---------------------------------------------------------------------

・ プロフィール

符号 356P/2017 O2
検出日 2017年7月30日
検出光度 21.1等
検出者 Pan-STARRS 1 telescope (Haleakala)

・ 写真集

・ 軌道要素

Epoch 2018 Jan. 2.0 TT = JDT 2458120.5
T 2017 Dec. 17.19065 TT                                 MPCW
q   2.6898826            (2000.0)            P               Q
n   0.11597423     Peri.  226.18677     +0.88768763     -0.45715157
a   4.1644891      Node   160.81032     +0.45569084     +0.85511646
e   0.3540906      Incl.    9.62944     +0.06600397     +0.24451643
P   8.50
From 25 observations 2009 Nov. 9-2017 Aug. 3, mean residual 0".4.

・ 光度変化

        m1 = 12.5 + 5 logΔ + 10.0 log r

---------------------------------------------------------------------

軌道要素はM.P.E.C. 2017-P09に掲載されたものです。
光度グラフはComet for Windowsで作成したものです。

---------------------------------------------------------------------

Copyright(C) Seiichi Yoshida (comet@aerith.net). All rights reserved.